{"data":{"norad_id":57300,"intl_designator":"2023-096L","name":"STARLINK-30236","alt_names":[],"object_type":"PAYLOAD","status":"ACTIVE","operator":null,"country":"US","launch_date":"2023-07-10","launch_site_code":"AFETR","launch_vehicle":null,"mission":null,"orbit_class":"UNKNOWN","rcs_meters":null,"size_class":null,"mass_kg":null,"dimensions":null,"purposes":["comms"],"wikipedia_slug":null,"has_3d_model":false,"image_url":null,"decayed_at":null,"tle_current":{"epoch":"2026-09-20T22:00:03.000096Z","epoch_age_seconds":88323,"freshness":"FRESH","line1":"1 57300U 23096L   26263.91670139  .00413181  00000+0  31161-2 0  9991","line2":"2 57300  42.9991 191.6687 0001449 275.7492 229.8018 15.70452858  5867","mean_motion":15.70452858,"eccentricity":0.0001449,"inclination_deg":42.9991,"raan_deg":191.6687,"arg_perigee_deg":275.7492,"mean_anomaly_deg":229.8018,"bstar":0.0031161,"rev_number":586,"period_min":91.6932967879,"perigee_km":356.6258046126,"apogee_km":358.57782172065,"semimajor_km":6735.7388131666,"source":"CELESTRAK","updated_at":"2026-09-21T09:00:33.594883Z"}}}